Regional Weather Roundup
Issued by NWS Sioux Falls, SD

Home | Current Version | Previous Version | Graphics & Text | Print | Product List | Glossary On
Versions: 1 2 3 4 5 6 7 8 9 10 11 12 13 14 15 16 17 18 19 20 21 22 23 24 25 26 27 28 29 30 31 32 33 34 35 36 37 38 39 40 41 42 43 44 45 46 47 48 49 50
000
ASUS43 KFSD 191010
RWRFSD

WEATHER ROUNDUP FOR SE SOUTH DAKOTA/SW MINNESOTA/NW IOWA
NATIONAL WEATHER SERVICE SIOUX FALLS SD
500 AM CDT SUN APR 19 2015

NOTE: "FAIR" INDICATES FEW OR NO CLOUDS BELOW 12,000 FEET WITH NO
SIGNIFICANT WEATHER AND OR OBSTRUCTIONS TO VISIBILITY.


SDZ038>040-050-052>070-191100-
SOUTHEAST SOUTH DAKOTA

CITY           SKY/WX    TMP DP  RH WIND       PRES   REMARKS
BROOKINGS      CLOUDY    55  54  94 W12       29.71S
CHAMBERLAIN    CLOUDY    47  45  91 NW21G28   29.85S
HURON          CLOUDY    49  47  93 NW20      29.77R
MADISON        CLOUDY    50  50 100 W15G22    29.72S
MITCHELL       CLOUDY    50  48  93 NW17G31   29.78R
SIOUX FALLS    CLOUDY    56  54  93 W12       29.72S
WINNER         LGT RAIN  48  44  86 NW20G28   29.88R FOG
YANKTON        CLOUDY    52  48  87 NW21G28   29.75R
$$

MNZ071-072-080-081-089-090-097-098-191100-
SOUTHWEST MINNESOTA

CITY           SKY/WX    TMP DP  RH WIND       PRES   REMARKS
FAIRMONT       CLOUDY    55  46  71 S6        29.73F
JACKSON        CLOUDY    54  52  94 S7        29.73F FOG
LUVERNE        CLOUDY    55  54  94 S8        29.72F FOG
MARSHALL       CLOUDY    55  52  88 SW10      29.69F
MONTEVIDEO     CLOUDY    55  55 100 SW8       29.69F FOG
PIPESTONE      CLOUDY    55  54  94 SW12      29.71S FOG
REDWOOD FALLS  CLOUDY    55  54  96 S10       29.70F FOG
TRACY          CLOUDY    56  54  95 S10       29.70F
WORTHINGTON    CLOUDY    54  52  94 SW9       29.72F
$$

IAZ001>003-012>014-020>022-031-032-NEZ013-014-SDZ071-191100-
NORTHWEST IOWA

CITY           SKY/WX    TMP DP  RH WIND       PRES   REMARKS
CHEROKEE       CLOUDY    54  54 100 S3        29.73F FOG
DENISON        FOG       55  55 100 S5        29.72F VSB 1/4
ESTHERVILLE    FOG       53  53 100 S5        29.73F VSB 3/4
LE MARS        CLOUDY    55  55 100 CALM      29.74F FOG
ORANGE CITY    FOG      N/A N/A N/A S3        29.73F VSB 1/4
SHELDON        FOG       54  54 100 S7        29.72F VSB 1/4
SIOUX CITY     CLOUDY    54  52  93 CALM      29.73F FOG
SPENCER        LGT RAIN  53  52  96 S3        29.73F
STORM LAKE       N/A     52  52 100 S6        29.74F
$$

ABBREVIATIONS USED IN REMARKS
   TC - TEMPERATURE IN CELSIUS
  WCI - WIND CHILL INDEX
   HX - HEAT INDEX
  VSB - VISIBILITY




USA.gov is the U.S. government's official web portal to all federal, state and local government web resources and services.